BEIDOU-2 IGSO-3

Last updated on Tue Aug 25 2026 00:02:57 GMT+0000 (Coordinated Universal Time)

1 37384U 11013A 26230.91979428 -.00000155 00000+0 00000+0 0 9993 2 37384 62.4969 39.5609 0036994 183.8957 178.9703 1.00253025 56292
UTC large
Height (km)
Speed (km/s)
/
Latitude / Longitude
Inclination (degrees)
Orbital Period (minutes)
Azimuth
Elevation
Range (km)
Doppler Factor

Next 0 passes for location: London (51.5072 / 0.1276)

No passes found over London.